Regional Weather Roundup
Issued by NWS

Home | Current Version | Previous Version | Graphics & Text | Print | Product List | Glossary On
Versions: 1 2 3 4 5 6 7 8 9 10 11 12 13 14 15 16 17 18 19 20 21 22 23 24 25 26 27 28 29 30 31 32 33 34 35 36 37 38 39 40 41 42 43 44 45 46 47 48 49 50
000
ASUS45 KABQ 230710
RWRNM
WEATHER ROUNDUP FOR NEW MEXICO
NATIONAL WEATHER SERVICE ALBUQUERQUE NM
100 AM MDT WED APR 23 2014

NOTE: "FAIR" MEANS FEW OR NO CLOUDS BELOW 12,000 FEET AGL WITH NO
       SIGNIFICANT WEATHER OR OBSTRUCTIONS TO VISION.

      THIS PRODUCT IS RELEASED AS TWO VERSIONS.  ONE VERSION NEAR
      THE TOP OF THE HOUR CONTAINING PRELIMINARY DATA FROM ALBUQUERQUE
      AND OTHER STATIONS.  A FINAL VERSION WITH ADDITIONAL DATA IS
      ISSUED ABOUT 10 MINUTES AFTER THE HOUR.

NMZ501-503-504-510>518-230800-
NORTHWEST PLATEAU/NORTHCENTRAL MOUNTAINS

CITY           SKY/WX    TMP DP  RH WIND       PRES   REMARKS
FARMINGTON     CLEAR     62  24  23 SW10      29.82S
LOS ALAMOS     CLOUDY    60  26  27 S6        29.94S
SANTA FE       MOCLDY    58  30  34 SE10      29.89F
TAOS           CLOUDY    55  32  41 SE9       29.95F
ANGEL FIRE     FAIR      48  35  60 SW10      30.01F

$$
NMZ402-403-502-505>509-230800-
WESTCENTRAL MOUNTAINS/SOUTHWEST MOUNTAINS

CITY           SKY/WX    TMP DP  RH WIND       PRES   REMARKS
GALLUP         MOCLDY    55  25  31 SW9       29.92R
GRANTS         CLOUDY    58  25  27 CALM      29.94F
SILVER CITY    MOCLDY    63  25  23 W14       29.95S

$$
NMZ407-409-411-412-230800-
SOUTHERN DESERTS

CITY           SKY/WX    TMP DP  RH WIND       PRES   REMARKS
LORDSBURG      FAIR      68  27  21 W7        29.90R
DEMING         PTCLDY    68  25  19 W9        29.87S
LAS CRUCES     PTCLDY    71  24  17 W15       29.88S
HOLLOMAN AFB   MOCLDY    73  38  27 SE15      29.82F
ALAMOGORDO     MOCLDY    73  36  25 S16       29.84F
T OR C         PTCLDY    65  26  23 SW5       29.85S

$$
NMZ519>523-230800-
CENTRAL VALLEYS/CENTRAL HIGHLANDS

CITY           SKY/WX    TMP DP  RH WIND       PRES   REMARKS
ALBUQUERQUE    MOCLDY    67  29  24 S13       29.86S
DOUBLE EAGLE   CLOUDY    56  25  29 SW9       29.88F
MORIARTY ARPT  FAIR      53  32  44 S10       29.92F
CLINES CORNERS MOCLDY    55  34  45 S16       29.96S
BELEN          FAIR      59  28  29 SW5       29.85S
SOCORRO        FAIR      60  32  34 S7        29.84S

$$
NMZ524>526-539-540-230800-
SOUTHCENTRAL MOUNTAINS

CITY           SKY/WX    TMP DP  RH WIND       PRES   REMARKS
RUIDOSO        PTCLDY    59  36  41 S10       30.02F

$$
NMZ527>531-230800-
NORTHEAST HIGHLANDS/NORTHEAST PLAINS

CITY           SKY/WX    TMP DP  RH WIND       PRES   REMARKS
LAS VEGAS      CLOUDY    49  39  68 SW9       29.95F
RATON          MOCLDY    54  42  64 S10       29.89F
CLAYTON        CLEAR     57  41  55 S15       29.86

$$
NMZ532>537-230800-
EASTCENTRAL PLAINS

CITY           SKY/WX    TMP DP  RH WIND       PRES   REMARKS
TUCUMCARI      PTCLDY    66  40  38 S22G29    29.84S
CANNON AFB     CLEAR     62  39  42 S16       29.91S
CLOVIS AIRPORT CLEAR     61  39  44 S16       29.94S

$$
NMZ028-029-538-230800-
SOUTHEAST PLAINS

CITY           SKY/WX    TMP DP  RH WIND       PRES   REMARKS
ROSWELL        MOCLDY    66  43  43 S12       29.87R
ARTESIA        PTCLDY    64  45  48 S8        29.87S
CARLSBAD       PTCLDY    69  44  40 SE6       29.85F
HOBBS          CLEAR     64  41  42 SE13      29.92S


$$



USA.gov is the U.S. government's official web portal to all federal, state and local government web resources and services.